星链-32270 (STARLINK-32270)

导读 | 豆包AI

STARLINK-32270是美国太空探索技术公司SpaceX星链Starlink项目的一颗低轨互联网通信卫星,于2024年8月4日发射入轨。 星链项目旨在构建全球覆盖的卫星互联网星座,为偏远地区、网络基础设施匮乏区域提供高速低延迟宽带服务,该卫星的发射延续了星链系统持续组网推进的节奏,进一步扩充了星链低轨星座的规模,助力提升全球网络覆盖能力。

Basic Information
目录编号:
60364
目录名称:
STARLINK-32270
国际标识:
2024-138K
轨道中心:
EARTH
卫星名称:
星链-32270 (STARLINK-32270)
卫星全名:
星链-32270 (STARLINK-32270)
卫星状态:
在轨 (已飞行588 天)
发射日期:
2024-08-04 UTC
国别 :
美国 (US)
星等 :
--
Orbit Information
数据来源 国际轨道数据 AOE轨道数据
星历时间 2026-03-15T14:59:17+0800
12小时前
查看轨道信息
2026-03-14T15:00:00+0800
1天前
查看轨道信息
半长轴 6853.398km 6853.32km
偏心率 0.0000394 0.0002546
轨道倾角 53.159° 53.164°
近地点辐角 120.734° 67.481°
升交点赤经 283.699° 288.346°
平近点角 239.370° 183.645°
近地点 474.99km 473.438km
远地点 475.532km 476.928km
周期 94.106分钟 94.105分钟
每日圈数 15.301847 15.302109
Detailed Information
卫星平台:
Starlink v2.0 mini
运营商:
太空探索技术公司
运营商所在国:
美国
制造商(研发单位):
太空探索技术公司
制造商所在国:
美国
使用方式:
暂无
Satellite Introduction
星链(Starlink)计划是由太空探索技术公司(SpaceX)提出的一个巨型低轨卫星互联网星座项目,计划在2019年至2024年间在太空搭建由约1.2万颗卫星组成的“星链”网络,其中1584颗将部署在地球上空550千米处的近地轨道,并从2020年开始工作。该卫星仍在工作。
2D Orbit Map
3D Orbit Map
Orbit Altitude Analysis Chart
Orbit Inclination Analysis Chart
Orbit Comprehensive Analysis Chart
View Comprehensive Chart